THOR ABLESTAR DEB, 956

Orbit data source: Space-Track

THOR ABLESTAR DEB, 956 is space debris in LEO originally from a launch on Sun, 13 Dec 1964 UTC launched from the Air Force Western Test Range (AFWTR). Debris objects in space refer to the collection of defunct objects orbiting the Earth. Examples of debris include non-operational satellites, rocket bodies, and fragments generated from explosions, collisions, or faulty payload assembly.

Loading next visibility...
Identifier
956, 1964-083B
Orbit
LEO
Country
Flag of USUS
Related business
Manufacturer
Unknown
Mission
Spacecraft
Bus & Motor
Unknown
Mass
Unknown
Launch date (UTC)
1964-12-13 (61 years ago)
Launch vehicle
Unknown
Launch site
Air Force Western Test Range (AFWTR)
Object type
Payload
Rocket body
Debris
Shape & HBR
Unknown shape, 0.1 m
Radar Cross Section
Small (<0.1 m²)

Expand to show TLE details & history
Last TLE update: 20 hours ago

TLE from 20 hours ago
0 THOR ABLESTAR DEB
1 00956U 64083B   26125.36621249  .00000307  00000-0  35135-3 0  9990
2 00956  89.9289 169.2829 0024658 144.7971 232.0835 13.67538023 50277
Epoch: 2026-05-05T08:47Z
TLE epoch observation values (Epoch: 2026-05-05T08:47:20.759Z)
Latitude
16.64085°
Longitude
174.22546°
Altitude
1,021.994 km
Speed
7.336 km/s
True Right ascension
11h 17m 12s
True Declination
16° 33' 00"
Sunlit
Object was in daylight at epoch
Visualization orbit readout
Latitude
Unknown
Longitude
Unknown
Altitude
Unknown
Speed
Unknown
Apparent Right ascension
Unknown
Apparent Declination
Unknown
Sunlit
N/A
Visualization observer readout
Local Sidereal Time
12:40:10
Azimuth
Unknown
Elevation
Unknown
Doppler factor
Unknown
Orbital elements
Apogee altitude
1,023.654 km
Perigee altitude
987.241 km
Semi-major axis
7,383.584 km
Eccentricity
0.00247
Inclination
89.9289°
RAAN
169.2829°
Arg. of periapsis
144.7971°
True anomaly
231.86101°
Mean anomaly
232.0835°
Eccentric anomaly
231.97221°
Mean motion
3.42092 °/min
Orbital period
105.23 mins
BSTAR
0.00035135
Loading maneuver chart data...
Computing Atmospheric mass density...

Documentation

Showing up to 5 results
|